FENGYUN 1C DEB, 36668

Orbit data source: Space-Track

FENGYUN 1C DEB, 36668 is space debris in SSO originally from a launch on Mon, 10 May 1999 UTC launched from the Taiyaun Space Center, China (TSC). Fengyun 1C debris stems from the Chinese weather satellite Fengyun-1C, which was intentionally destroyed by a Chinese anti-satellite missile in 2007. This event dramatically increased the amount of space debris, with thousands of trackable fragments posing hazards to satellites and human spaceflight. The Fengyun 1C debris cloud has become a focal point in discussions about space sustainability and the need for international regulations to prevent the creation of new debris.

Loading next visibility...
Identifier
36668, 1999-025DYN
Orbit
SSO
Country
Flag of CNCN / PRC
Related business
Manufacturer
Unknown
Mission
Spacecraft
Bus & Motor
Unknown
Mass
Unknown
Launch date (UTC)
1999-05-10 (27 years ago)
Launch vehicle
Unknown
Launch site
Taiyaun Space Center, China (TSC)
Object type
Payload
Rocket body
Debris
Shape & HBR
Unknown shape, 0.1 m
Radar Cross Section
Small (<0.1 m²)

Expand to show TLE details & history
Last TLE update: 2 days ago

TLE from 2 days ago
0 FENGYUN 1C DEB
1 36668U 99025DYN 26255.76732407  .00000665  00000-0  35411-3 0  9994
2 36668  98.6076 261.8452 0051963 158.5329 201.8041 14.15993585612951
Epoch: 2026-09-12T18:24Z
TLE epoch observation values (Epoch: 2026-09-12T18:24:56.799Z)
Latitude
-0.00001°
Longitude
-6.16306°
Altitude
876.699 km
Speed
7.396 km/s
True Right ascension
17h 27m 22s
True Declination
0° 00' 00"
Sunlit
Object was in daylight at epoch
Visualization orbit readout
Latitude
Unknown
Longitude
Unknown
Altitude
Unknown
Speed
Unknown
Apparent Right ascension
Unknown
Apparent Declination
Unknown
Sunlit
N/A
Visualization observer readout
Local Sidereal Time
04:52:09
Azimuth
Unknown
Elevation
Unknown
Doppler factor
Unknown
Orbital elements
Apogee altitude
873.58 km
Perigee altitude
798.606 km
Semi-major axis
7,214.23 km
Eccentricity
0.0052
Inclination
98.6076°
RAAN
261.8452°
Arg. of periapsis
158.5329°
True anomaly
201.58426°
Mean anomaly
201.8041°
Eccentric anomaly
201.69405°
Mean motion
3.54208 °/min
Orbital period
101.64 mins
BSTAR
0.00035411
Loading maneuver chart data...
Computing Atmospheric mass density...
Loading historical data...
Loading historical data...
Loading historical data...
Loading historical data...
Loading historical data...
Loading historical data...
Loading historical data...

Documentation

Showing up to 5 results
|